コルレヴィッチ-ユーリッチ彗星

183P/Korlevic-Juric (2017)

English version
Home page
Updated on June 25, 2018

---------------------------------------------------------------------

・ プロフィール

・ 写真集

・ 軌道要素

Epoch 2017 Nov. 23.0 TT = JDT 2458080.5
T 2017 Nov. 11.30895 TT                                 MPCW
q   3.8723572            (2000.0)            P               Q
n   0.10364350     Peri.  161.25643     -0.97303251     -0.22833221
a   4.4885701      Node     5.84579     +0.14813296     -0.72735650
e   0.1372849      Incl.   18.75257     +0.17681729     -0.64716066
P   9.51
From 314 observations 1989 Apr. 7-2018 Apr. 23, mean residual 0".6.

・ 光度変化

        m1 = 4.0 + 5 logΔ + 20 log r

---------------------------------------------------------------------

軌道要素はM.P.E.C. 2018-H105に掲載されたものです。
光度グラフはComet for Windowsで作成したものです。

---------------------------------------------------------------------

Copyright(C) Seiichi Yoshida (comet@aerith.net). All rights reserved.